﻿Дата;AdRiver;Google
2020-01-03;0;1
2019-08-23;0;1
2019-08-21;0;1
2019-08-17;0;2
2019-08-16;0;3
2019-08-14;0;1
2019-08-13;0;2
2019-08-12;0;1
2019-08-09;0;2
2019-08-08;0;3
2019-08-07;0;2
2019-08-06;0;2
2019-08-05;0;1
2019-08-04;0;1
2019-08-03;0;1
2019-08-02;0;2
2019-08-01;0;2
2019-07-30;0;3
2019-07-29;0;3
2019-07-26;0;1
2019-07-25;0;2
2019-07-24;0;3
2019-07-22;0;1
2019-07-21;0;4
2019-07-20;0;3
2019-07-19;0;1
2019-07-18;0;2
2019-07-07;0;1
2019-07-06;0;2
2019-07-04;0;2
2019-07-01;0;1
2019-06-18;0;1
2019-06-09;0;1
2019-06-05;0;3
2019-06-03;0;1
2019-06-01;0;4
2019-05-30;0;1
2019-05-28;0;2
2019-05-27;0;2
2019-05-23;0;3
2019-05-21;0;3
2019-05-20;0;3
2019-05-18;0;2
2019-05-17;0;3
2019-05-16;0;3
2019-05-15;0;6
2019-05-14;0;5
2019-05-12;0;3
2019-05-11;0;2
2019-05-10;0;2
2019-05-09;0;4
2019-05-08;0;4
2019-05-07;0;8
2019-05-06;0;4
2019-05-05;0;1
2019-05-04;0;5
2019-05-03;0;1
2019-04-23;0;2
2019-04-22;0;3
2019-04-13;0;5
2019-04-12;0;1
2019-04-11;0;2
2019-03-26;0;1
2019-03-25;0;1
2019-03-19;0;1
2019-03-16;0;1
2019-03-08;0;1
2019-02-25;0;1
2019-02-22;0;1
2019-02-14;0;1
2019-01-19;0;1
2019-01-11;0;1
2019-01-10;0;2
2018-12-24;0;1
2018-12-16;0;1
2018-12-13;0;2
2018-12-12;0;1
2018-12-03;0;1
2018-12-01;0;1
2018-11-12;0;1
2018-11-08;0;1
2018-08-29;0;1
2018-08-18;0;2
2018-08-11;0;1
2018-08-08;0;1
2018-08-04;0;1
2018-08-02;0;1
2018-08-01;0;1
2018-07-23;0;1
2018-07-18;0;1
2018-07-15;0;1
2018-07-14;0;1
2018-07-11;0;1
2018-07-09;0;5
2018-07-04;0;1
2018-07-01;0;2
2018-06-26;0;1
2017-08-30;1;0
2017-08-24;1;0
2017-08-21;1;0
2017-08-18;1;0
2017-08-17;2;0
2017-08-16;1;0
2017-08-15;2;0
2017-08-14;3;0
2017-08-12;2;0
2017-08-11;16;0
2017-08-10;31;0
2017-08-09;66;0
2017-08-08;71;0
2017-08-07;27;0
